Year,Month,Day,Hour,Minute,Value (Times are PST for temperature in C)
2013,11,13,00,00,6.50
2013,11,13,00,01,6.70
2013,11,13,00,02,6.90
2013,11,13,00,03,7.10
2013,11,13,00,04,7.20
2013,11,13,00,05,7.20
2013,11,13,00,06,7.20
2013,11,13,00,07,7.20
2013,11,13,00,08,7.10
2013,11,13,00,09,7.10
2013,11,13,00,10,7.20
2013,11,13,00,11,7.20
2013,11,13,00,12,7.30
2013,11,13,00,13,7.30
2013,11,13,00,14,7.40
2013,11,13,00,15,7.30
2013,11,13,00,16,7.40
2013,11,13,00,17,7.40
2013,11,13,00,18,7.40
2013,11,13,00,19,7.40
2013,11,13,00,20,7.50
2013,11,13,00,21,7.50
2013,11,13,00,22,7.40
2013,11,13,00,23,7.40
2013,11,13,00,24,7.40
2013,11,13,00,25,7.40
2013,11,13,00,26,7.30
2013,11,13,00,27,7.30
2013,11,13,00,28,7.30
2013,11,13,00,29,7.30
2013,11,13,00,30,7.30
2013,11,13,00,31,7.30
2013,11,13,00,32,7.40
2013,11,13,00,33,7.40
2013,11,13,00,34,7.50
2013,11,13,00,35,7.50
2013,11,13,00,36,7.50
2013,11,13,00,37,7.60
2013,11,13,00,38,7.60
2013,11,13,00,39,7.60
2013,11,13,00,40,7.60
2013,11,13,00,41,7.60
2013,11,13,00,42,7.70
2013,11,13,00,43,7.80
2013,11,13,00,44,7.80
2013,11,13,00,45,7.90
2013,11,13,00,46,8.00
2013,11,13,00,47,8.10
2013,11,13,00,48,8.10
2013,11,13,00,49,8.10
2013,11,13,00,50,8.10
2013,11,13,00,51,8.10
2013,11,13,00,52,8.10
2013,11,13,00,53,8.10
2013,11,13,00,54,8.10
2013,11,13,00,55,8.20
2013,11,13,00,56,8.20
2013,11,13,00,57,8.30
2013,11,13,00,58,8.40
2013,11,13,00,59,8.40
2013,11,13,01,00,8.40
2013,11,13,01,01,8.40
2013,11,13,01,02,8.40
2013,11,13,01,03,8.50
2013,11,13,01,04,8.50
2013,11,13,01,05,8.60
2013,11,13,01,06,8.50
2013,11,13,01,07,8.40
2013,11,13,01,08,8.30
2013,11,13,01,09,8.30
2013,11,13,01,10,8.30
2013,11,13,01,11,8.30
2013,11,13,01,12,8.30
2013,11,13,01,13,8.40
2013,11,13,01,14,8.50
2013,11,13,01,15,8.60
2013,11,13,01,16,8.70
2013,11,13,01,17,8.80
2013,11,13,01,18,8.80
2013,11,13,01,19,8.80
2013,11,13,01,20,8.80
2013,11,13,01,21,8.80
2013,11,13,01,22,8.90
2013,11,13,01,23,8.90
2013,11,13,01,24,9.00
2013,11,13,01,25,9.00
2013,11,13,01,26,9.00
2013,11,13,01,27,9.10
2013,11,13,01,28,9.10
2013,11,13,01,29,9.20
2013,11,13,01,30,9.20
2013,11,13,01,31,9.30
2013,11,13,01,32,9.40
2013,11,13,01,33,9.40
2013,11,13,01,34,9.50
2013,11,13,01,35,9.50
2013,11,13,01,36,9.60
2013,11,13,01,37,9.60
2013,11,13,01,38,9.70
2013,11,13,01,39,9.70
2013,11,13,01,40,9.70
2013,11,13,01,41,9.80
2013,11,13,01,42,9.80
2013,11,13,01,43,9.80
2013,11,13,01,44,9.80
2013,11,13,01,45,9.80
2013,11,13,01,46,9.90
2013,11,13,01,47,9.90
2013,11,13,01,48,9.90
2013,11,13,01,49,10.00
2013,11,13,01,50,10.00
2013,11,13,01,51,10.10
2013,11,13,01,52,10.10
2013,11,13,01,53,10.10
2013,11,13,01,54,10.10
2013,11,13,01,55,10.20
2013,11,13,01,56,10.30
2013,11,13,01,57,10.30
2013,11,13,01,58,10.40
2013,11,13,01,59,10.40
2013,11,13,02,00,10.40
2013,11,13,02,01,10.40
2013,11,13,02,02,10.40
2013,11,13,02,03,10.40
2013,11,13,02,04,10.40
2013,11,13,02,05,10.50
2013,11,13,02,06,10.50
2013,11,13,02,07,10.60
2013,11,13,02,08,10.60
2013,11,13,02,09,10.60
2013,11,13,02,10,10.70
2013,11,13,02,11,10.70
2013,11,13,02,12,10.70
2013,11,13,02,13,10.70
2013,11,13,02,14,10.80
2013,11,13,02,15,10.80
2013,11,13,02,16,10.80
2013,11,13,02,17,10.90
2013,11,13,02,18,10.90
2013,11,13,02,19,11.00
2013,11,13,02,20,11.10
2013,11,13,02,21,11.10
2013,11,13,02,22,11.10
2013,11,13,02,23,11.20
2013,11,13,02,24,11.20
2013,11,13,02,25,11.20
2013,11,13,02,26,11.20
2013,11,13,02,27,11.20
2013,11,13,02,28,11.20
2013,11,13,02,29,11.20
2013,11,13,02,30,11.20
2013,11,13,02,31,11.20
2013,11,13,02,32,11.30
2013,11,13,02,33,11.30
2013,11,13,02,34,11.30
2013,11,13,02,35,11.40
2013,11,13,02,36,11.40
2013,11,13,02,37,11.40
2013,11,13,02,38,11.50
2013,11,13,02,39,11.50
2013,11,13,02,40,11.50
2013,11,13,02,41,11.40
2013,11,13,02,42,11.40
2013,11,13,02,43,11.40
2013,11,13,02,44,11.40
2013,11,13,02,45,11.40
2013,11,13,02,46,11.40
2013,11,13,02,47,11.50
2013,11,13,02,48,11.50
2013,11,13,02,49,11.60
2013,11,13,02,50,11.60
2013,11,13,02,51,11.70
2013,11,13,02,52,11.70
2013,11,13,02,53,11.70
2013,11,13,02,54,11.70
2013,11,13,02,55,11.70
2013,11,13,02,56,11.70
2013,11,13,02,57,11.70
2013,11,13,02,58,11.70
2013,11,13,02,59,11.70
2013,11,13,03,00,11.70
2013,11,13,03,01,11.70
2013,11,13,03,02,11.70
2013,11,13,11,03,11.70
2013,11,13,11,04,11.70
2013,11,13,11,05,11.70
2013,11,13,11,06,11.70
2013,11,13,11,07,11.70
2013,11,13,11,08,11.70
2013,11,13,11,09,11.70
2013,11,13,11,10,11.70
2013,11,13,11,11,11.80
2013,11,13,11,12,11.80
2013,11,13,11,13,11.90
2013,11,13,11,14,11.90
2013,11,13,11,15,11.90
2013,11,13,11,16,11.90
2013,11,13,11,17,11.90
2013,11,13,11,18,11.90
2013,11,13,11,19,11.90
2013,11,13,11,20,11.90
2013,11,13,11,21,11.90
2013,11,13,11,22,12.00
2013,11,13,11,23,12.00
2013,11,13,11,24,12.00
2013,11,13,11,25,12.10
2013,11,13,11,26,12.10
2013,11,13,11,27,12.10
2013,11,13,11,28,12.10
2013,11,13,11,29,12.10
2013,11,13,11,30,12.10
2013,11,13,11,31,12.10
2013,11,13,11,32,12.10
2013,11,13,11,33,12.20
2013,11,13,11,34,12.20
2013,11,13,11,35,12.20
2013,11,13,11,36,12.20
2013,11,13,11,37,12.20
2013,11,13,11,38,12.20
2013,11,13,11,39,12.20
2013,11,13,11,40,12.20
2013,11,13,11,41,12.30
2013,11,13,11,42,12.30
2013,11,13,11,43,12.30
2013,11,13,11,44,12.30
2013,11,13,11,45,12.30
2013,11,13,11,46,12.30
2013,11,13,11,47,12.30
2013,11,13,11,48,12.30
2013,11,13,11,49,12.30
2013,11,13,11,50,12.40
2013,11,13,11,51,12.40
2013,11,13,11,52,12.40
2013,11,13,11,53,12.40
2013,11,13,11,54,12.30
2013,11,13,11,55,12.30
2013,11,13,11,56,12.30
2013,11,13,11,57,12.30
2013,11,13,11,58,12.30
2013,11,13,11,59,12.30
2013,11,13,12,00,12.20
2013,11,13,12,01,12.20
2013,11,13,12,02,12.20
2013,11,13,12,03,12.10
2013,11,13,12,04,12.10
2013,11,13,12,05,12.10
2013,11,13,12,06,12.10
2013,11,13,12,07,12.10
2013,11,13,12,08,12.10
2013,11,13,12,09,12.10
2013,11,13,12,10,12.10
2013,11,13,12,11,12.10
2013,11,13,12,12,12.10
2013,11,13,12,13,12.10
2013,11,13,12,14,12.20
2013,11,13,12,15,12.20
2013,11,13,12,16,12.20
2013,11,13,12,17,12.20
2013,11,13,12,18,12.20
2013,11,13,12,19,12.20
2013,11,13,12,20,12.20
2013,11,13,12,21,12.20
2013,11,13,12,22,12.20
2013,11,13,12,23,12.20
2013,11,13,12,24,12.20
2013,11,13,12,25,12.20
2013,11,13,12,26,12.20
2013,11,13,12,27,12.20
2013,11,13,12,28,12.20
2013,11,13,12,29,12.20
2013,11,13,12,30,12.20
2013,11,13,12,31,12.20
2013,11,13,12,32,12.20
2013,11,13,12,33,12.30
2013,11,13,12,34,12.30
2013,11,13,12,35,12.30
2013,11,13,12,36,12.20
2013,11,13,12,37,12.20
2013,11,13,12,38,12.20
2013,11,13,12,39,12.20
2013,11,13,12,40,12.20
2013,11,13,12,41,12.20
2013,11,13,12,42,12.20
2013,11,13,12,43,12.10
2013,11,13,12,44,12.10
2013,11,13,12,45,12.10
2013,11,13,12,46,12.10
2013,11,13,12,47,12.00
2013,11,13,12,48,12.00
2013,11,13,12,49,12.00
2013,11,13,12,50,12.00
2013,11,13,12,51,12.00
2013,11,13,12,52,12.00
2013,11,13,12,53,11.90
2013,11,13,12,54,11.90
2013,11,13,12,55,11.80
2013,11,13,12,56,11.80
2013,11,13,12,57,11.80
2013,11,13,12,58,11.80
2013,11,13,12,59,11.70
2013,11,13,13,00,11.70
2013,11,13,13,01,11.70
2013,11,13,13,02,11.70
2013,11,13,13,03,11.70
2013,11,13,13,04,11.70
2013,11,13,13,05,11.70
2013,11,13,13,06,11.70
2013,11,13,13,07,11.70
2013,11,13,13,08,11.70
2013,11,13,13,09,11.70
2013,11,13,13,10,11.70
2013,11,13,13,11,11.70
2013,11,13,13,12,11.70
2013,11,13,13,13,11.70
2013,11,13,13,14,11.70
2013,11,13,13,15,11.70
2013,11,13,13,16,11.70
2013,11,13,13,17,11.70
2013,11,13,13,18,11.70
2013,11,13,13,19,11.70
2013,11,13,13,20,11.70
2013,11,13,13,21,11.70
2013,11,13,13,22,11.60
2013,11,13,13,23,11.60
2013,11,13,13,24,11.60
2013,11,13,13,25,11.50
2013,11,13,13,26,11.50
2013,11,13,13,27,11.50
2013,11,13,13,28,11.40
2013,11,13,13,29,11.40
2013,11,13,13,30,11.40
2013,11,13,13,31,11.40
2013,11,13,13,32,11.40
2013,11,13,13,33,11.40
2013,11,13,13,34,11.40
2013,11,13,13,35,11.30
2013,11,13,13,36,11.30
2013,11,13,13,37,11.30
2013,11,13,13,38,11.30
2013,11,13,13,39,11.30
2013,11,13,13,40,11.30
2013,11,13,13,41,11.30
2013,11,13,13,42,11.30
2013,11,13,13,43,11.30
2013,11,13,13,44,11.30
2013,11,13,13,45,11.30
2013,11,13,13,46,11.30
2013,11,13,13,47,11.30
2013,11,13,13,48,11.30
2013,11,13,13,49,11.30
2013,11,13,13,50,11.40
2013,11,13,13,51,11.40
2013,11,13,13,52,11.40
2013,11,13,13,53,11.40
2013,11,13,13,54,11.40
2013,11,13,13,55,11.40
2013,11,13,13,56,11.40
2013,11,13,13,57,11.40
2013,11,13,13,58,11.40
2013,11,13,13,59,11.40
2013,11,13,14,00,11.40
2013,11,13,14,01,11.50
2013,11,13,14,02,11.40
2013,11,13,14,03,11.40
2013,11,13,14,04,11.40
2013,11,13,14,05,11.40
2013,11,13,14,06,11.40
2013,11,13,14,07,11.40
2013,11,13,14,08,11.40
2013,11,13,14,09,11.50
2013,11,13,14,10,11.50
2013,11,13,14,11,11.50
2013,11,13,14,12,11.50
2013,11,13,14,13,11.50
2013,11,13,14,14,11.60
2013,11,13,14,15,11.60
2013,11,13,14,16,11.60
2013,11,13,14,17,11.60
2013,11,13,14,18,11.60
2013,11,13,14,19,11.60
2013,11,13,14,20,11.60
2013,11,13,14,21,11.60
2013,11,13,14,22,11.60
2013,11,13,14,23,11.50
2013,11,13,14,24,11.50
2013,11,13,14,25,11.50
2013,11,13,14,26,11.50
2013,11,13,14,27,11.50
2013,11,13,14,28,11.50
2013,11,13,14,29,11.50
2013,11,13,14,30,11.50
2013,11,13,14,31,11.50
2013,11,13,14,32,11.50
2013,11,13,14,33,11.50
2013,11,13,14,34,11.50
2013,11,13,14,35,11.50
2013,11,13,14,36,11.50
2013,11,13,14,37,11.50
2013,11,13,14,38,11.50
2013,11,13,14,39,11.50
2013,11,13,14,40,11.50
2013,11,13,14,41,11.50
2013,11,13,14,42,11.50
2013,11,13,14,43,11.50
2013,11,13,14,44,11.50
2013,11,13,14,45,11.50
2013,11,13,14,46,11.50
2013,11,13,14,47,11.50
2013,11,13,14,48,11.50
2013,11,13,14,49,11.50
2013,11,13,14,50,11.50
2013,11,13,14,51,11.50
2013,11,13,14,52,11.50
2013,11,13,14,53,11.50
2013,11,13,14,54,11.50
2013,11,13,14,55,11.40
2013,11,13,14,56,11.40
2013,11,13,14,57,11.40
2013,11,13,14,58,11.40
2013,11,13,14,59,11.40
2013,11,13,15,00,11.40
2013,11,13,15,01,11.40
2013,11,13,15,02,11.40
2013,11,13,15,03,11.40
2013,11,13,15,04,11.30
2013,11,13,15,05,11.30
2013,11,13,15,06,11.30
2013,11,13,15,07,11.30
2013,11,13,15,08,11.30
2013,11,13,15,09,11.30
2013,11,13,15,10,11.20
2013,11,13,15,11,11.20
2013,11,13,15,12,11.20
2013,11,13,15,13,11.20
2013,11,13,15,14,11.20
2013,11,13,15,15,11.20
2013,11,13,15,16,11.20
2013,11,13,15,17,11.20
2013,11,13,15,18,11.20
2013,11,13,15,19,11.20
2013,11,13,15,20,11.20
2013,11,13,15,21,11.20
2013,11,13,15,22,11.20
2013,11,13,15,23,11.20
2013,11,13,15,24,11.20
2013,11,13,15,25,11.10
2013,11,13,15,26,11.10
2013,11,13,15,27,11.10
2013,11,13,15,28,11.10
2013,11,13,15,29,11.10
2013,11,13,15,30,11.10
2013,11,13,15,31,11.00
2013,11,13,15,32,11.00
2013,11,13,15,33,11.00
2013,11,13,15,34,11.00
2013,11,13,15,35,10.90
2013,11,13,15,36,10.90
2013,11,13,15,37,10.90
2013,11,13,15,38,10.90
2013,11,13,15,39,10.80
2013,11,13,15,40,10.80
2013,11,13,15,41,10.80
2013,11,13,15,42,10.80
2013,11,13,15,43,10.80
2013,11,13,15,44,10.80
2013,11,13,15,45,10.80
2013,11,13,15,46,10.80
2013,11,13,15,47,10.80
2013,11,13,15,48,10.70
2013,11,13,15,49,10.70
2013,11,13,15,50,10.70
2013,11,13,15,51,10.70
2013,11,13,15,52,10.60
2013,11,13,15,53,10.60
2013,11,13,15,54,10.60
2013,11,13,15,55,10.50
2013,11,13,15,56,10.50
2013,11,13,15,57,10.50
2013,11,13,15,58,10.50
2013,11,13,15,59,10.40
2013,11,13,16,00,10.40
2013,11,13,16,01,10.40
2013,11,13,16,02,10.40
2013,11,13,16,03,10.40
2013,11,13,16,04,10.40
2013,11,13,16,05,10.30
2013,11,13,16,06,10.30
2013,11,13,16,07,10.30
2013,11,13,16,08,10.30
2013,11,13,16,09,10.30
2013,11,13,16,10,10.30
2013,11,13,16,11,10.30
2013,11,13,16,12,10.30
2013,11,13,16,13,10.20
2013,11,13,16,14,10.20
2013,11,13,16,15,10.20
2013,11,13,16,16,10.20
2013,11,13,16,17,10.10
2013,11,13,16,18,10.10
2013,11,13,16,19,10.10
2013,11,13,16,20,10.10
2013,11,13,16,21,10.10
2013,11,13,16,22,10.10
2013,11,13,16,23,10.10
2013,11,13,16,24,10.10
2013,11,13,16,25,10.10
2013,11,13,16,26,10.10
2013,11,13,16,27,10.10
2013,11,13,16,28,10.00
2013,11,13,16,29,10.00
2013,11,13,16,30,10.00
2013,11,13,16,31,10.00
2013,11,13,16,32,10.00
2013,11,13,16,33,10.00
2013,11,13,16,34,10.00
2013,11,13,16,35,9.90
2013,11,13,16,36,9.90
2013,11,13,16,37,9.90
2013,11,13,16,38,9.90
2013,11,13,16,39,9.90
2013,11,13,16,40,9.80
2013,11,13,16,41,9.80
2013,11,13,16,42,9.70
2013,11,13,16,43,9.70
2013,11,13,16,44,9.70
2013,11,13,16,45,9.60
2013,11,13,16,46,9.60
2013,11,13,16,47,9.60
2013,11,13,16,48,9.50
2013,11,13,16,49,9.50
2013,11,13,16,50,9.50
2013,11,13,16,51,9.40
2013,11,13,16,52,9.40
2013,11,13,16,53,9.40
2013,11,13,16,54,9.40
2013,11,13,16,55,9.40
2013,11,13,16,56,9.30
2013,11,13,16,57,9.30
2013,11,13,16,58,9.30
2013,11,13,16,59,9.30
2013,11,13,17,00,9.20
2013,11,13,17,01,9.20
2013,11,13,17,02,9.20
2013,11,13,17,03,9.20
2013,11,13,17,04,9.10
2013,11,13,17,05,9.10
2013,11,13,17,06,9.00
2013,11,13,17,07,9.00
2013,11,13,17,08,9.00
2013,11,13,17,09,9.00
2013,11,13,17,10,8.90
2013,11,13,17,11,8.90
2013,11,13,17,12,8.90
2013,11,13,17,13,8.90
2013,11,13,17,14,8.90
2013,11,13,17,15,8.80
2013,11,13,17,16,8.80
2013,11,13,17,17,8.80
2013,11,13,17,18,8.80
2013,11,13,17,19,8.80
2013,11,13,17,20,8.80
2013,11,13,17,21,8.80
2013,11,13,17,22,8.70
2013,11,13,17,23,8.70
2013,11,13,17,24,8.70
2013,11,13,17,25,8.70
2013,11,13,17,26,8.70
2013,11,13,17,27,8.70
2013,11,13,17,28,8.70
2013,11,13,17,29,8.70
2013,11,13,17,30,8.70
2013,11,13,17,31,8.70
2013,11,13,17,32,8.70
2013,11,13,17,33,8.70
2013,11,13,17,34,8.70
2013,11,13,17,35,8.60
2013,11,13,17,36,8.60
2013,11,13,17,37,8.60
2013,11,13,17,38,8.50
2013,11,13,17,39,8.50
2013,11,13,17,40,8.40
2013,11,13,17,41,8.40
2013,11,13,17,42,8.40
2013,11,13,17,43,8.30
2013,11,13,17,44,8.30
2013,11,13,17,45,8.30
2013,11,13,17,46,8.30
2013,11,13,17,47,8.30
2013,11,13,17,48,8.20
2013,11,13,17,49,8.20
2013,11,13,17,50,8.20
2013,11,13,17,51,8.20
2013,11,13,17,52,8.20
2013,11,13,17,53,8.20
2013,11,13,17,54,8.20
2013,11,13,17,55,8.10
2013,11,13,17,56,8.10
2013,11,13,17,57,8.10
2013,11,13,17,58,8.10
2013,11,13,17,59,8.00
2013,11,13,18,00,8.00
2013,11,13,18,01,8.00
2013,11,13,18,02,8.00
2013,11,13,18,03,8.00
2013,11,13,18,04,8.00
2013,11,13,18,05,8.00
2013,11,13,18,06,8.00
2013,11,13,18,07,8.00
2013,11,13,18,08,8.00
2013,11,13,18,09,8.00
2013,11,13,18,10,8.00
2013,11,13,18,11,8.10
2013,11,13,18,12,8.00
2013,11,13,18,13,8.10
2013,11,13,18,14,8.10
2013,11,13,18,15,8.10
2013,11,13,18,16,8.10
2013,11,13,18,17,8.10
2013,11,13,18,18,8.00
2013,11,13,18,19,8.00
2013,11,13,18,20,7.90
2013,11,13,18,21,7.90
2013,11,13,18,22,7.90
2013,11,13,18,23,7.80
2013,11,13,18,24,7.80
2013,11,13,18,25,7.80
2013,11,13,18,26,7.80
2013,11,13,18,27,7.80
2013,11,13,18,28,7.80
2013,11,13,18,29,7.80
2013,11,13,18,30,7.70
2013,11,13,18,31,7.70
2013,11,13,18,32,7.70
2013,11,13,18,33,7.70
2013,11,13,18,34,7.70
2013,11,13,18,35,7.70
2013,11,13,18,36,7.70
2013,11,13,18,37,7.70
2013,11,13,18,38,7.60
2013,11,13,18,39,7.60
2013,11,13,18,40,7.60
2013,11,13,18,41,7.60
2013,11,13,18,42,7.60
2013,11,13,18,43,7.60
2013,11,13,18,44,7.60
2013,11,13,18,45,7.50
2013,11,13,18,46,7.50
2013,11,13,18,47,7.40
2013,11,13,18,48,7.40
2013,11,13,18,49,7.40
2013,11,13,18,50,7.30
2013,11,13,18,51,7.30
2013,11,13,18,52,7.30
2013,11,13,18,53,7.30
2013,11,13,18,54,7.30
2013,11,13,18,55,7.30
2013,11,13,18,56,7.30
2013,11,13,18,57,7.30
2013,11,13,18,58,7.30
2013,11,13,18,59,7.30
2013,11,13,19,00,7.30
2013,11,13,19,01,7.30
2013,11,13,19,02,7.20
2013,11,13,19,03,7.20
2013,11,13,19,04,7.20
2013,11,13,19,05,7.20
2013,11,13,19,06,7.20
2013,11,13,19,07,7.20
2013,11,13,19,08,7.10
2013,11,13,19,09,7.10
2013,11,13,19,10,7.00
2013,11,13,19,11,7.00
2013,11,13,19,12,6.90
2013,11,13,19,13,6.80
2013,11,13,19,14,6.80
2013,11,13,19,15,6.80
2013,11,13,19,16,6.80
2013,11,13,19,17,6.80
2013,11,13,19,18,6.80
2013,11,13,19,19,6.80
2013,11,13,19,20,6.90
2013,11,13,19,21,6.90
2013,11,13,19,22,6.90
2013,11,13,19,23,6.90
2013,11,13,19,24,6.90
2013,11,13,19,25,6.90
2013,11,13,19,26,6.90
2013,11,13,19,27,6.90
2013,11,13,19,28,6.80
2013,11,13,19,29,6.80
2013,11,13,19,30,6.80
2013,11,13,19,31,6.70
2013,11,13,19,32,6.70
2013,11,13,19,33,6.70
2013,11,13,19,34,6.60
2013,11,13,19,35,6.60
2013,11,13,19,36,6.50
2013,11,13,19,37,6.50
2013,11,13,19,38,6.40
2013,11,13,19,39,6.40
2013,11,13,19,40,6.40
2013,11,13,19,41,6.40
2013,11,13,19,42,6.50
2013,11,13,19,43,6.50
2013,11,13,19,44,6.50
2013,11,13,19,45,6.60
2013,11,13,19,46,6.60
2013,11,13,19,47,6.60
2013,11,13,19,48,6.60
2013,11,13,19,49,6.60
2013,11,13,19,50,6.50
2013,11,13,19,51,6.50
2013,11,13,19,52,6.50
2013,11,13,19,53,6.40
2013,11,13,19,54,6.40
2013,11,13,19,55,6.40
2013,11,13,19,56,6.40
2013,11,13,19,57,6.40
2013,11,13,19,58,6.40
2013,11,13,19,59,6.40
2013,11,13,20,00,6.40
2013,11,13,20,01,6.40
2013,11,13,20,02,6.40
2013,11,13,20,03,6.40
2013,11,13,20,04,6.40
2013,11,13,20,05,6.30
2013,11,13,20,06,6.30
2013,11,13,20,07,6.30
2013,11,13,20,08,6.30
2013,11,13,20,09,6.30
2013,11,13,20,10,6.30
2013,11,13,20,11,6.30
2013,11,13,20,12,6.30
2013,11,13,20,13,6.30
2013,11,13,20,14,6.40
2013,11,13,20,15,6.40
2013,11,13,20,16,6.50
2013,11,13,20,17,6.60
2013,11,13,20,18,6.60
2013,11,13,20,19,6.60
2013,11,13,20,20,6.60
2013,11,13,20,21,6.60
2013,11,13,20,22,6.60
2013,11,13,20,23,6.60
2013,11,13,20,24,6.70
2013,11,13,20,25,6.70
2013,11,13,20,26,6.70
2013,11,13,20,27,6.70
2013,11,13,20,28,6.70
2013,11,13,20,29,6.70
2013,11,13,20,30,6.70
2013,11,13,20,31,6.60
2013,11,13,20,32,6.60
2013,11,13,20,33,6.60
2013,11,13,20,34,6.60
2013,11,13,20,35,6.60
2013,11,13,20,36,6.60
2013,11,13,20,37,6.60
2013,11,13,20,38,6.60
2013,11,13,20,39,6.60
2013,11,13,20,40,6.70
2013,11,13,20,41,6.70
2013,11,13,20,42,6.80
2013,11,13,20,43,6.80
2013,11,13,20,44,6.80
2013,11,13,20,45,6.80
2013,11,13,20,46,6.80
2013,11,13,20,47,6.80
2013,11,13,20,48,6.80
2013,11,13,20,49,6.80
2013,11,13,20,50,6.80
2013,11,13,20,51,6.80
2013,11,13,20,52,6.70
2013,11,13,20,53,6.70
2013,11,13,20,54,6.60
2013,11,13,20,55,6.60
2013,11,13,20,56,6.50
2013,11,13,20,57,6.50
2013,11,13,20,58,6.40
2013,11,13,20,59,6.40
2013,11,13,21,00,6.30
2013,11,13,21,01,6.30
2013,11,13,21,02,6.30
2013,11,13,21,03,6.30
2013,11,13,21,04,6.20
2013,11,13,21,05,6.20
2013,11,13,21,06,6.20
2013,11,13,21,07,6.20
2013,11,13,21,08,6.20
2013,11,13,21,09,6.20
2013,11,13,21,10,6.30
2013,11,13,21,11,6.30
2013,11,13,21,12,6.30
2013,11,13,21,13,6.30
2013,11,13,21,14,6.30
2013,11,13,21,15,6.30
2013,11,13,21,16,6.20
2013,11,13,21,17,6.20
2013,11,13,21,18,6.20
2013,11,13,21,19,6.20
2013,11,13,21,20,6.20
2013,11,13,21,21,6.30
2013,11,13,21,22,6.30
2013,11,13,21,23,6.40
2013,11,13,21,24,6.40
2013,11,13,21,25,6.40
2013,11,13,21,26,6.40
2013,11,13,21,27,6.40
2013,11,13,21,28,6.50
2013,11,13,21,29,6.50
2013,11,13,21,30,6.50
2013,11,13,21,31,6.60
2013,11,13,21,32,6.60
2013,11,13,21,33,6.60
2013,11,13,21,34,6.50
2013,11,13,21,35,6.50
2013,11,13,21,36,6.50
2013,11,13,21,37,6.50
2013,11,13,21,38,6.40
2013,11,13,21,39,6.40
2013,11,13,21,40,6.40
2013,11,13,21,41,6.40
2013,11,13,21,42,6.50
2013,11,13,21,43,6.50
2013,11,13,21,44,6.50
2013,11,13,21,45,6.60
2013,11,13,21,46,6.60
2013,11,13,21,47,6.60
2013,11,13,21,48,6.60
2013,11,13,21,49,6.70
2013,11,13,21,50,6.70
2013,11,13,21,51,6.70
2013,11,13,21,52,6.70
2013,11,13,21,53,6.70
2013,11,13,21,54,6.70
2013,11,13,21,55,6.60
2013,11,13,21,56,6.60
2013,11,13,21,57,6.70
2013,11,13,21,58,6.70
2013,11,13,21,59,6.70
2013,11,13,22,00,6.80
2013,11,13,22,01,6.80
2013,11,13,22,02,6.90
2013,11,13,22,03,6.90
2013,11,13,22,04,7.00
2013,11,13,22,05,7.00
2013,11,13,22,06,7.10
2013,11,13,22,07,7.10
2013,11,13,22,08,7.10
2013,11,13,22,09,7.10
2013,11,13,22,10,7.20
2013,11,13,22,11,7.20
2013,11,13,22,12,7.20
2013,11,13,22,13,7.30
2013,11,13,22,14,7.30
2013,11,13,22,15,7.30
2013,11,13,22,16,7.30
2013,11,13,22,17,7.30
2013,11,13,22,18,7.40
2013,11,13,22,19,7.40
2013,11,13,22,20,7.50
2013,11,13,22,21,7.50
2013,11,13,22,22,7.60
2013,11,13,22,23,7.60
2013,11,13,22,24,7.60
2013,11,13,22,25,7.60
2013,11,13,22,26,7.60
2013,11,13,22,27,7.60
2013,11,13,22,28,7.60
2013,11,13,22,29,7.60
2013,11,13,22,30,7.60
2013,11,13,22,31,7.60
2013,11,13,22,32,7.60
2013,11,13,22,33,7.60
2013,11,13,22,34,7.60
2013,11,13,22,35,7.60
2013,11,13,22,36,7.60
2013,11,13,22,37,7.60
2013,11,13,22,38,7.60
2013,11,13,22,39,7.60
2013,11,13,22,40,7.60
2013,11,13,22,41,7.60
2013,11,13,22,42,7.50
2013,11,13,22,43,7.60
2013,11,13,22,44,7.60
2013,11,13,22,45,7.60
2013,11,13,22,46,7.60
2013,11,13,22,47,7.60
2013,11,13,22,48,7.60
2013,11,13,22,49,7.60
2013,11,13,22,50,7.60
2013,11,13,22,51,7.60
2013,11,13,22,52,7.60
2013,11,13,22,53,7.70
2013,11,13,22,54,7.70
2013,11,13,22,55,7.70
2013,11,13,22,56,7.80
2013,11,13,22,57,7.80
2013,11,13,22,58,7.80
2013,11,13,22,59,7.80
2013,11,13,23,00,7.80
2013,11,13,23,01,7.90
2013,11,13,23,02,7.90
2013,11,13,23,03,7.90
2013,11,13,23,04,7.90
2013,11,13,23,05,7.90
2013,11,13,23,06,7.90
2013,11,13,23,07,7.90
2013,11,13,23,08,7.90
2013,11,13,23,09,7.90
2013,11,13,23,10,7.90
2013,11,13,23,11,7.90
2013,11,13,23,12,7.90
2013,11,13,23,13,7.90
2013,11,13,23,14,7.90
2013,11,13,23,15,7.90
2013,11,13,23,16,7.90
2013,11,13,23,17,7.90
2013,11,13,23,18,8.00
2013,11,13,23,19,8.10
2013,11,13,23,20,8.20
2013,11,13,23,21,8.20
2013,11,13,23,22,8.20
2013,11,13,23,23,8.30
2013,11,13,23,24,8.30
2013,11,13,23,25,8.30
2013,11,13,23,26,8.40
2013,11,13,23,27,8.40
2013,11,13,23,28,8.40
2013,11,13,23,29,8.50
2013,11,13,23,30,8.50
2013,11,13,23,31,8.50
2013,11,13,23,32,8.50
2013,11,13,23,33,8.60
2013,11,13,23,34,8.60
2013,11,13,23,35,8.60
2013,11,13,23,36,8.60
2013,11,13,23,37,8.60
2013,11,13,23,38,8.60
2013,11,13,23,39,8.60
2013,11,13,23,40,8.70
2013,11,13,23,41,8.70
2013,11,13,23,42,8.70
2013,11,13,23,43,8.70
2013,11,13,23,44,8.70
2013,11,13,23,45,8.70
2013,11,13,23,46,8.70
2013,11,13,23,47,8.70
2013,11,13,23,48,8.70
2013,11,13,23,49,8.70
2013,11,13,23,50,8.70
2013,11,13,23,51,8.70
2013,11,13,23,52,8.70
2013,11,13,23,53,8.70
2013,11,13,23,54,8.70
2013,11,13,23,55,8.70
2013,11,13,23,56,8.70
2013,11,13,23,57,8.70
2013,11,13,23,58,8.70
2013,11,13,23,59,8.60
